| time (UTC) | temp F | wind direction | speed MPH | gust MPH | rain 1hr in | rain 24hr in | rain mn in | humidity % | barometer mb |
| 20260506114546 | 51 | 30 | 0.0 | 3.0 | 0.01 | 1.75 | 0.73 | 93 | 1011.9 |
| 20260506113046 | 51 | 338 | 0.0 | 3.0 | 0.07 | 1.75 | 0.73 | 93 | 1012.0 |
| 20260506111546 | 51 | 0 | 0.0 | 6.0 | 0.11 | 1.75 | 0.73 | 93 | 1011.5 |
| 20260506110042 | 51 | 0 | 0.0 | 6.0 | 0.16 | 1.75 | 0.73 | 93 | 1011.6 |
| 20260506104544 | 52 | 24 | 2.0 | 4.0 | 0.18 | 1.74 | 0.71 | 93 | 1010.9 |
| 20260506103041 | 52 | 350 | 1.0 | 4.0 | 0.15 | 1.67 | 0.65 | 93 | 1012.5 |
| 20260506101547 | 52 | 0 | 1.0 | 4.0 | 0.15 | 1.64 | 0.62 | 93 | 1011.9 |
| 20260506100048 | 52 | 0 | 0.0 | 7.0 | 0.11 | 1.59 | 0.56 | 92 | 1011.9 |
| 20260506094547 | 52 | 252 | 0.0 | 3.0 | 0.07 | 1.55 | 0.52 | 93 | 1011.2 |
| 20260506093102 | 52 | 240 | 0.0 | 4.0 | 0.06 | 1.51 | 0.49 | 93 | 1010.5 |
| 20260506091546 | 53 | 147 | 1.0 | 12.0 | 0.18 | 1.48 | 0.46 | 92 | 1010.6 |
| 20260506090042 | 53 | 340 | 0.0 | 7.0 | 0.28 | 1.47 | 0.44 | 93 | 1010.3 |
| 20260506084540 | 53 | 331 | 1.0 | 4.0 | 0.33 | 1.47 | 0.44 | 92 | 1009.5 |
| 20260506083040 | 52 | 103 | 1.0 | 9.0 | 0.34 | 1.45 | 0.43 | 92 | 1008.8 |
| 20260506081545 | 53 | 355 | 1.0 | 7.0 | 0.18 | 1.29 | 0.26 | 91 | 1009.9 |
| 20260506073053 | 54 | 0 | 2.0 | 11.0 | 0.08 | 1.11 | 0.08 | 90 | 1009.1 |
| 20260506071540 | 54 | 66 | 2.0 | 8.0 | 0.07 | 1.10 | 0.07 | 90 | 1008.5 |
| 20260506061559 | 67 | 291 | 2.0 | 9.0 | 0.00 | 1.02 | 0.00 | 78 | 1008.0 |
| 20260506044551 | 70 | 0 | 1.0 | 10.0 | 0.00 | 1.02 | 1.02 | 82 | 1007.0 |
| 20260506043052 | 70 | 0 | 1.0 | 7.0 | 0.00 | 1.02 | 1.02 | 82 | 1007.8 |
| 20260506041603 | 70 | 0 | 0.0 | 7.0 | 0.00 | 1.02 | 1.02 | 82 | 1007.7 |
| 20260506040053 | 69 | 180 | 1.0 | 5.0 | 0.00 | 1.02 | 1.02 | 82 | 1007.7 |
| 20260506034545 | 69 | 250 | 0.0 | 7.0 | 0.00 | 1.02 | 1.02 | 83 | 1008.5 |
| 20260506033046 | 69 | 0 | 0.0 | 7.0 | 0.00 | 1.02 | 1.02 | 83 | 1008.2 |
| 20260506031543 | 69 | 188 | 0.0 | 3.0 | 0.00 | 1.02 | 1.02 | 83 | 1008.2 |
| 20260506030047 | 70 | 0 | 0.0 | 8.0 | 0.00 | 1.02 | 1.02 | 82 | 1008.3 |
| 20260506024546 | 69 | 179 | 1.0 | 7.0 | 0.00 | 1.02 | 1.02 | 83 | 1008.3 |
| 20260506023053 | 69 | 0 | 0.0 | 7.0 | 0.00 | 1.02 | 1.02 | 84 | 1008.4 |
| 20260506021542 | 69 | 171 | 0.0 | 4.0 | 0.00 | 1.02 | 1.02 | 84 | 1008.2 |
| 20260506020109 | 69 | 195 | 1.0 | 9.0 | 0.00 | 1.02 | 1.02 | 84 | 1008.1 |
| 20260506014547 | 69 | 184 | 0.0 | 5.0 | 0.00 | 1.02 | 1.02 | 85 | 1007.8 |
| 20260506013046 | 69 | 0 | 1.0 | 6.0 | 0.00 | 1.02 | 1.02 | 86 | 1007.8 |
| 20260506011549 | 69 | 0 | 0.0 | 5.0 | 0.00 | 1.02 | 1.02 | 86 | 1007.7 |
| 20260506010047 | 69 | 0 | 0.0 | 4.0 | 0.00 | 1.02 | 1.02 | 86 | 1007.7 |
| 20260506004544 | 69 | 170 | 2.0 | 8.0 | 0.00 | 1.02 | 1.02 | 87 | 1007.1 |
| 20260506003041 | 69 | 0 | 2.0 | 7.0 | 0.00 | 1.02 | 1.02 | 87 | 1007.6 |
| 20260506001546 | 69 | 146 | 0.0 | 6.0 | 0.00 | 1.02 | 1.02 | 88 | 1007.8 |
| 20260506000106 | 68 | 0 | 0.0 | 4.0 | 0.00 | 1.02 | 1.02 | 88 | 1007.4 |
| 20260505234550 | 68 | 155 | 1.0 | 5.0 | 0.00 | 1.02 | 1.02 | 89 | 1007.1 |
| 20260505233050 | 68 | 184 | 0.0 | 5.0 | 0.00 | 1.02 | 1.02 | 90 | 1007.8 |
| 20260505231551 | 67 | 0 | 0.0 | 7.0 | 0.00 | 1.02 | 1.02 | 90 | 1007.6 |
| 20260505230047 | 67 | 124 | 0.0 | 4.0 | 0.00 | 1.02 | 1.02 | 90 | 1007.8 |
| 20260505224546 | 67 | 0 | 0.0 | 4.0 | 0.00 | 1.02 | 1.02 | 91 | 1007.8 |
| 20260505223047 | 67 | 0 | 0.0 | 7.0 | 0.00 | 1.02 | 1.02 | 91 | 1007.7 |
| 20260505221551 | 66 | 0 | 0.0 | 9.0 | 0.00 | 1.02 | 1.02 | 91 | 1007.6 |
| 20260505220103 | 66 | 155 | 0.0 | 5.0 | 0.00 | 1.02 | 1.02 | 91 | 1007.9 |
| 20260505214551 | 66 | 91 | 0.0 | 6.0 | 0.00 | 1.02 | 1.02 | 91 | 1008.2 |
| 20260505213047 | 65 | 157 | 1.0 | 8.0 | 0.00 | 1.01 | 1.01 | 91 | 1008.3 |
| 20260505211614 | 65 | 0 | 1.0 | 5.0 | 0.00 | 1.01 | 1.01 | 91 | 1008.5 |
| 20260505210047 | 65 | 0 | 1.0 | 7.0 | 0.00 | 1.01 | 1.01 | 91 | 1008.6 |
| 20260505204557 | 65 | 177 | 0.0 | 9.0 | 0.00 | 1.01 | 1.01 | 90 | 1008.7 |
| 20260505203046 | 65 | 0 | 0.0 | 4.0 | 0.00 | 1.01 | 1.01 | 90 | 1008.8 |
| 20260505201542 | 65 | 148 | 0.0 | 7.0 | 0.00 | 1.00 | 1.00 | 90 | 1008.7 |
| 20260505200041 | 65 | 0 | 0.0 | 9.0 | 0.00 | 1.00 | 1.00 | 89 | 1008.9 |
| 20260505194548 | 65 | 95 | 2.0 | 10.0 | 0.00 | 1.00 | 1.00 | 89 | 1008.8 |
| 20260505193039 | 64 | 0 | 1.0 | 8.0 | 0.00 | 1.00 | 1.00 | 90 | 1008.9 |
| 20260505191546 | 64 | 0 | 0.0 | 11.0 | 0.00 | 1.00 | 1.00 | 91 | 1009.1 |
| 20260505190046 | 64 | 173 | 3.0 | 11.0 | 0.00 | 1.00 | 1.00 | 91 | 1009.2 |
| 20260505184544 | 63 | 129 | 3.0 | 11.0 | 0.00 | 1.00 | 1.00 | 92 | 1009.2 |
| 20260505183047 | 63 | 80 | 0.0 | 5.0 | 0.00 | 1.00 | 1.00 | 92 | 1009.2 |
| 20260505181606 | 62 | 178 | 1.0 | 8.0 | 0.00 | 1.00 | 1.00 | 92 | 1009.5 |
| 20260505180101 | 62 | 0 | 1.0 | 6.0 | 0.00 | 1.00 | 1.00 | 92 | 1009.5 |
| 20260505174546 | 62 | 153 | 0.0 | 10.0 | 0.00 | 1.00 | 1.00 | 93 | 1009.7 |
| 20260505173048 | 61 | 175 | 0.0 | 8.0 | 0.00 | 1.00 | 1.00 | 93 | 1009.8 |
| 20260505171557 | 61 | 0 | 1.0 | 10.0 | 0.05 | 1.00 | 1.00 | 93 | 1009.8 |
| 20260505170041 | 61 | 0 | 1.0 | 6.0 | 0.08 | 1.00 | 1.00 | 93 | 1009.9 |
| 20260505164548 | 60 | 180 | 2.0 | 8.0 | 0.11 | 1.00 | 1.00 | 93 | 1010.3 |
| 20260505163046 | 60 | 128 | 1.0 | 6.0 | 0.34 | 1.00 | 1.00 | 93 | 1010.6 |
| 20260505161541 | 59 | 0 | 1.0 | 6.0 | 0.38 | 0.95 | 0.95 | 93 | 1010.7 |
| 20260505153047 | 59 | 0 | 0.0 | 3.0 | 0.31 | 0.64 | 0.64 | 91 | 1012.0 |
| 20260505151543 | 59 | 0 | 0.0 | 2.0 | 0.26 | 0.55 | 0.55 | 91 | 1011.2 |
| 20260505124546 | 64 | 0 | 0.0 | 5.0 | 0.00 | 0.00 | 0.00 | 74 | 1011.0 |
| 20260505123053 | 64 | 155 | 0.0 | 6.0 | 0.00 | 0.00 | 0.00 | 73 | 1010.9 |
| 20260505121544 | 64 | 95 | 1.0 | 5.0 | 0.00 | 0.00 | 0.00 | 73 | 1010.6 |
| 20260505120106 | 64 | 0 | 0.0 | 3.0 | 0.00 | 0.00 | 0.00 | 74 | 1010.3 |